Wind_Speed
49 50 51 52 53 54 53 53 52 50 49 48 47 46 47 47 47 47 48 48 47 47 47 48 48 48 47 46 45 45 44 44 44 45 46 43 39 36 34 33 34 34
50 50 51 53 54 55 56 55 53 50 49 48 47 47 47 48 48 47 47 47 46 46 46 46 45 45 45 45 45 44 45 45 46 47 46 42 38 37 36 35 35 35
48 47 48 49 50 51 52 52 50 48 47 47 48 47 47 47 47 47 46 46 45 45 45 45 45 45 46 46 46 47 47 48 48 47 44 40 39 38 37 36 36 37
48 47 45 46 47 47 48 49 49 48 48 48 47 48 47 47 46 46 45 45 45 45 46 46 46 46 46 46 47 47 48 47 46 45 43 41 40 39 38 37 37 38
51 50 47 47 48 48 49 50 51 51 51 50 49 49 49 48 47 47 46 46 46 46 47 47 47 46 46 47 47 47 47 47 46 45 44 43 42 40 39 38 38 39
55 54 53 52 53 54 54 54 53 52 50 50 51 51 51 50 50 49 49 49 49 48 49 49 49 49 48 48 48 48 48 47 47 46 45 44 43 41 39 38 39 40
61 61 60 60 60 59 58 57 55 52 50 51 52 53 53 53 53 52 52 53 53 52 52 53 53 52 52 51 50 49 49 48 47 46 45 43 41 39 38 37 38 40
62 63 64 64 63 61 60 58 57 54 52 53 55 55 55 55 55 55 54 54 55 55 56 56 56 56 55 53 51 50 49 48 47 46 44 42 40 38 37 36 36 37
61 62 63 63 62 62 60 58 57 56 54 55 57 58 58 58 57 57 56 56 56 57 58 57 56 55 53 51 48 46 45 44 45 45 45 43 42 41 41 41 39 36
64 64 64 64 64 62 60 58 56 56 56 57 58 58 58 58 58 57 57 56 56 56 55 54 52 49 47 46 44 44 44 45 46 47 47 48 47 46 47 47 45 42
67 66 65 64 64 63 61 59 57 57 57 58 58 58 58 58 58 57 57 56 56 55 54 53 52 50 49 49 48 49 52 53 53 52 52 53 53 51 50 50 48 47
66 65 65 64 64 63 61 60 59 58 58 58 58 58 58 58 59 58 58 57 57 57 57 57 58 57 57 58 57 58 59 58 57 56 56 56 55 53 52 51 50 50
63 63 64 64 63 62 61 60 60 59 59 59 59 60 60 61 61 61 60 59 59 59 59 59 61 61 61 62 62 62 62 61 60 59 59 58 57 55 53 52 52 53
61 61 62 62 61 61 60 60 61 61 61 61 61 61 62 63 63 63 62 61 61 61 60 60 61 62 62 62 63 64 64 64 63 62 61 60 58 56 55 53 52 52
61 62 62 62 62 61 61 62 62 63 63 63 63 63 63 64 64 64 63 63 63 63 62 61 62 62 63 63 63 64 65 65 63 62 61 60 58 56 54 52 50 49
63 63 63 63 63 63 62 63 64 65 65 65 65 64 64 64 65 64 64 64 64 64 64 63 63 63 63 63 63 64 65 64 63 62 60 59 57 55 53 51 49 49
65 65 65 65 65 65 64 63 64 66 67 67 67 66 65 65 65 65 65 64 64 64 64 64 64 64 64 63 64 64 64 64 62 60 59 59 59 57 56 54 52 50
67 68 68 68 67 67 66 65 66 66 67 67 68 67 66 65 65 65 64 63 62 62 63 64 64 65 64 63 63 63 63 62 62 61 59 59 59 59 57 55 53 52
70 70 71 71 70 70 69 68 69 69 69 69 69 69 67 66 66 66 64 63 62 63 63 63 62 62 61 62 62 62 62 63 63 62 61 59 59 58 57 56 55 54
72 72 73 73 74 73 73 72 72 71 71 70 69 69 68 67 67 67 65 63 64 65 65 64 63 62 61 60 60 59 59 59 59 60 61 60 59 59 58 57 56 56
75 75 75 76 76 76 76 75 75 74 73 72 70 69 68 68 68 67 66 64 64 65 66 66 66 65 63 62 62 62 62 61 61 61 62 63 62 60 60 59 58 57
77 77 77 77 77 77 77 77 77 77 76 75 73 71 70 69 69 69 68 66 65 65 65 66 67 67 67 67 68 69 70 69 68 66 66 66 65 64 62 61 61 60
76 76 76 77 77 77 77 77 77 78 78 77 76 74 73 72 71 70 70 69 67 66 63 63 64 66 68 70 72 74 75 74 72 70 68 67 66 65 64 63 63 63
70 71 71 71 71 71 72 73 74 75 76 75 75 75 74 73 72 71 71 70 69 67 64 62 63 64 64 66 71 75 76 75 73 71 69 69 68 66 66 66 66 66
65 65 65 65 65 66 67 68 69 70 71 72 72 73 72 73 72 71 71 71 70 70 70 68 69 69 67 68 74 79 79 75 72 71 69 68 68 69 69 71 71 70
63 63 63 63 63 64 64 65 66 66 67 67 68 69 70 71 72 71 71 71 71 72 74 73 72 72 71 71 76 84 88 82 74 71 71 69 68 70 71 73 74 73
Wind_Direction
264 266 266 267 268 269 270 271 272 273 273 273 274 276 278 278 279 280 280 280 280 278 278 278 279 281 282 284 285 286 287 287 288 288 290 288 284 282 281 280 278 276
264 266 267 267 268 269 271 272 272 272 273 274 275 277 278 278 279 280 280 279 278 277 276 277 279 281 283 284 285 286 286 286 286 286 286 284 280 280 280 279 277 276
262 263 265 265 266 267 268 269 269 271 273 275 278 279 279 278 278 278 277 276 275 275 276 278 279 282 283 284 285 285 285 285 284 284 283 280 279 280 280 280 278 275
259 260 261 262 263 263 265 266 269 273 275 277 279 279 279 279 278 277 276 276 276 277 278 279 280 282 283 284 283 282 282 282 282 281 280 279 280 281 280 279 277 275
256 256 257 259 260 263 267 270 274 277 279 279 279 279 280 280 280 279 279 279 279 280 280 281 281 282 282 282 281 280 279 279 278 278 278 278 280 280 279 277 276 274
256 255 256 258 261 265 269 273 275 278 279 280 280 281 281 281 281 281 281 281 281 281 282 282 281 281 281 280 279 277 277 277 277 277 278 279 279 279 278 277 275 274
255 256 257 260 263 267 271 272 273 275 277 279 279 279 279 279 279 280 280 281 282 283 284 284 283 282 281 280 278 277 278 278 279 280 280 281 281 280 279 278 277 276
254 256 258 261 264 268 272 272 270 270 273 277 278 278 277 277 278 279 280 281 282 284 285 285 286 286 285 284 283 283 284 285 286 288 288 287 285 283 280 280 279 277
255 256 258 261 265 268 270 269 268 267 269 274 277 277 277 278 278 280 281 282 283 285 286 286 287 287 287 287 287 288 289 290 290 291 292 291 289 285 284 287 288 286
259 260 262 264 265 266 266 266 266 266 267 271 274 274 274 275 277 278 280 281 283 283 284 284 284 284 282 282 283 284 286 286 286 287 287 287 287 286 286 290 293 292
261 262 264 264 264 265 265 265 265 265 267 269 270 269 270 271 273 274 276 278 278 278 277 276 276 276 275 274 275 277 280 282 282 281 281 281 283 283 284 287 290 290
260 261 262 263 263 264 265 266 266 266 266 266 266 266 268 269 271 272 274 275 275 275 274 273 272 272 272 273 274 276 279 280 280 279 279 280 281 282 283 284 285 285
258 259 260 261 262 264 265 265 266 266 266 266 266 267 268 269 271 272 273 274 274 274 273 273 272 272 273 274 275 276 278 279 279 279 279 280 281 282 282 282 282 283
257 258 259 260 261 262 263 264 265 265 266 266 267 268 269 270 271 272 273 274 274 274 273 272 271 271 271 271 272 274 275 276 277 278 278 279 280 280 280 280 279 279
258 259 259 260 261 262 263 265 265 266 266 266 267 267 268 270 271 272 273 274 274 274 273 272 272 271 271 271 272 273 274 275 277 278 279 279 279 279 278 277 276 275
261 262 263 263 263 264 265 266 268 268 268 267 267 267 268 270 271 272 273 273 273 273 273 273 272 272 273 273 273 273 274 276 277 278 278 278 277 276 275 275 274 273
262 264 265 266 266 267 267 268 269 270 270 270 270 270 270 271 272 272 273 273 273 274 273 273 272 272 272 272 272 273 273 274 275 275 275 275 276 276 276 276 276 275
263 265 266 267 268 268 268 268 268 269 270 271 272 272 272 272 272 272 272 272 271 270 270 271 272 273 272 271 271 271 272 272 273 273 274 275 277 279 280 280 280 280
265 266 267 268 268 269 269 269 268 268 269 269 270 270 271 270 270 270 270 269 267 266 266 267 268 269 270 270 270 270 271 272 273 274 274 275 276 278 279 280 281 282
266 267 267 268 268 269 269 268 268 268 268 268 268 269 269 268 268 268 268 266 265 264 264 264 264 265 266 267 268 268 268 269 271 272 273 274 275 277 278 279 280 281
265 265 266 266 267 267 268 268 268 267 267 267 266 266 266 266 266 266 265 264 262 262 262 262 263 264 265 264 264 264 264 265 267 268 271 273 275 276 277 278 278 279
264 264 264 264 264 265 265 266 266 266 266 266 265 265 264 264 264 264 263 262 261 260 261 263 264 265 264 264 264 264 265 266 266 267 269 271 274 276 277 278 278 277
263 263 264 264 264 264 264 264 264 264 265 265 265 264 263 263 262 262 262 262 261 260 260 261 263 263 263 264 264 263 263 264 266 268 269 271 273 275 276 276 276 276
263 264 264 264 264 264 264 263 263 262 262 262 263 263 263 263 262 261 261 260 260 259 258 257 258 260 262 263 263 261 261 263 265 267 269 271 272 272 272 272 272 272
262 262 262 262 262 262 262 261 261 261 261 261 261 262 262 261 261 261 260 260 259 258 256 254 255 258 260 262 263 263 263 263 265 267 268 269 270 270 270 271 271 272
261 261 261 261 261 261 261 261 261 261 260 260 260 260 260 261 261 261 261 261 260 260 259 257 256 256 258 260 263 266 266 266 265 266 268 268 268 268 269 270 271 273
Height
10601 10601 10601 10602 10603 10604 10604 10605 10605 10604 10604 10606 10608 10609 10609 10610 10610 10610 10610 10610 10611 10611 10611 10611 10611 10612 10612 10612 10612 10612 10612 10612 10612 10612 10612 10612 10612 10611 10611 10610 10610 10610
10596 10596 10596 10597 10598 10599 10599 10599 10600 10600 10599 10600 10602 10604 10604 10604 10604 10605 10605 10605 10605 10606 10606 10606 10606 10606 10606 10606 10606 10606 10606 10606 10606 10607 10607 10607 10606 10606 10606 10605 10605 10604
10591 10591 10591 10591 10592 10593 10593 10593 10594 10595 10595 10595 10596 10597 10598 10599 10599 10599 10599 10599 10600 10600 10600 10600 10600 10600 10600 10600 10600 10600 10600 10600 10600 10601 10601 10601 10601 10601 10600 10600 10599 10599
10586 10586 10587 10587 10586 10587 10587 10587 10588 10588 10589 10590 10589 10589 10590 10591 10592 10593 10593 10594 10594 10594 10594 10595 10595 10595 10595 10595 10595 10594 10594 10594 10595 10595 10595 10595 10595 10595 10595 10595 10594 10594
10581 10581 10582 10582 10581 10582 10582 10582 10582 10581 10581 10582 10582 10581 10582 10583 10584 10585 10586 10587 10587 10588 10588 10588 10589 10589 10590 10589 10589 10589 10589 10589 10589 10589 10589 10590 10590 10589 10589 10589 10588 10588
10576 10576 10577 10577 10576 10577 10577 10576 10576 10575 10575 10574 10574 10573 10574 10575 10577 10577 10578 10579 10580 10581 10582 10582 10583 10583 10584 10584 10583 10583 10583 10583 10583 10584 10584 10584 10583 10583 10583 10583 10583 10582
10571 10570 10571 10570 10570 10571 10571 10571 10570 10570 10569 10568 10567 10567 10567 10568 10569 10570 10570 10571 10571 10572 10573 10574 10574 10575 10576 10577 10577 10577 10577 10577 10577 10577 10577 10577 10577 10577 10577 10577 10577 10577
10564 10564 10564 10563 10563 10564 10564 10565 10565 10564 10563 10562 10561 10561 10561 10561 10562 10563 10563 10564 10564 10564 10564 10564 10564 10564 10565 10565 10566 10567 10567 10567 10567 10567 10567 10568 10568 10569 10570 10571 10572 10571
10558 10557 10558 10558 10557 10557 10558 10558 10558 10558 10558 10557 10556 10555 10554 10554 10554 10555 10556 10556 10557 10556 10555 10555 10555 10554 10553 10553 10554 10555 10555 10555 10555 10555 10556 10557 10559 10560 10561 10562 10563 10564
10550 10551 10551 10552 10551 10551 10550 10551 10552 10552 10552 10552 10551 10551 10550 10549 10548 10548 10549 10549 10549 10549 10547 10546 10546 10545 10545 10545 10546 10547 10548 10548 10549 10549 10549 10550 10551 10551 10552 10553 10554 10554
10543 10544 10544 10544 10544 10543 10543 10543 10545 10545 10546 10546 10545 10544 10544 10544 10543 10543 10544 10544 10545 10544 10543 10542 10541 10540 10540 10540 10541 10542 10542 10543 10544 10544 10544 10544 10544 10545 10546 10546 10546 10546
10535 10536 10536 10535 10535 10535 10536 10536 10537 10538 10539 10539 10538 10538 10538 10537 10537 10537 10538 10539 10539 10539 10539 10537 10536 10536 10535 10535 10536 10537 10536 10537 10537 10537 10537 10538 10539 10539 10540 10540 10540 10539
10528 10528 10527 10527 10528 10528 10529 10530 10530 10530 10531 10531 10532 10532 10531 10530 10529 10530 10530 10531 10530 10530 10531 10530 10529 10529 10529 10529 10529 10530 10530 10529 10529 10530 10530 10531 10532 10533 10533 10534 10533 10532
10520 10520 10520 10520 10521 10522 10522 10523 10523 10523 10523 10524 10525 10525 10524 10523 10522 10523 10523 10523 10521 10521 10522 10522 10521 10521 10522 10522 10522 10523 10522 10521 10522 10522 10523 10524 10524 10525 10526 10527 10527 10526
10512 10512 10513 10513 10514 10515 10516 10515 10515 10515 10516 10517 10517 10517 10516 10516 10515 10515 10515 10514 10513 10512 10513 10513 10513 10513 10514 10515 10515 10514 10514 10514 10514 10515 10515 10516 10516 10517 10518 10519 10519 10519
10503 10503 10504 10505 10506 10508 10509 10508 10507 10506 10506 10507 10508 10509 10509 10509 10508 10508 10508 10506 10505 10504 10504 10505 10505 10505 10505 10506 10507 10506 10505 10506 10507 10507 10508 10507 10508 10509 10510 10510 10512 10512
10496 10495 10494 10495 10497 10499 10501 10501 10499 10496 10495 10496 10498 10500 10501 10501 10501 10500 10500 10499 10499 10498 10497 10497 10497 10498 10498 10499 10499 10498 10498 10499 10499 10500 10501 10500 10499 10500 10501 10502 10503 10504
10488 10487 10486 10486 10487 10488 10490 10492 10491 10488 10488 10488 10489 10490 10492 10493 10492 10491 10492 10492 10492 10491 10489 10489 10489 10489 10490 10492 10492 10491 10491 10492 10492 10492 10493 10492 10491 10491 10491 10492 10492 10493
10479 10478 10477 10476 10477 10477 10479 10480 10481 10480 10480 10481 10481 10481 10484 10485 10483 10483 10484 10485 10485 10484 10483 10483 10483 10482 10482 10483 10484 10483 10483 10483 10483 10484 10485 10485 10484 10483 10483 10483 10483 10483
10469 10468 10467 10467 10466 10467 10467 10468 10469 10469 10470 10471 10472 10473 10475 10476 10475 10475 10477 10478 10478 10477 10477 10477 10477 10476 10475 10475 10475 10474 10474 10474 10474 10474 10475 10476 10477 10476 10476 10476 10476 10475
10459 10459 10459 10458 10457 10457 10457 10457 10457 10458 10459 10460 10462 10464 10464 10465 10466 10467 10468 10470 10470 10470 10470 10470 10470 10470 10469 10469 10467 10466 10466 10466 10467 10466 10466 10466 10468 10469 10469 10468 10468 10468
10448 10449 10449 10449 10449 10449 10449 10448 10448 10447 10448 10450 10452 10454 10454 10455 10456 10457 10458 10460 10462 10463 10464 10465 10464 10463 10462 10461 10460 10458 10457 10458 10459 10460 10460 10459 10459 10460 10460 10460 10460 10459
10438 10439 10439 10439 10440 10441 10440 10440 10439 10438 10438 10440 10441 10442 10444 10445 10446 10447 10448 10450 10452 10455 10458 10458 10455 10453 10453 10451 10450 10449 10448 10448 10450 10452 10452 10453 10453 10453 10453 10452 10452 10451
10429 10429 10429 10430 10430 10431 10431 10430 10430 10429 10430 10431 10431 10432 10433 10434 10436 10437 10438 10440 10442 10446 10449 10449 10444 10442 10442 10440 10437 10436 10437 10439 10441 10443 10445 10445 10445 10445 10445 10444 10443 10443
10420 10420 10420 10420 10420 10421 10421 10421 10421 10421 10421 10423 10423 10424 10424 10424 10426 10427 10428 10429 10432 10434 10436 10437 10434 10433 10433 10429 10424 10422 10424 10430 10433 10434 10436 10436 10436 10436 10435 10434 10434 10434
10411 10411 10411 10412 10412 10412 10412 10412 10412 10413 10414 10415 10415 10415 10415 10415 10416 10418 10419 10421 10423 10423 10423 10425 10426 10426 10425 10421 10415 10409 10409 10417 10425 10427 10427 10428 10427 10426 10425 10424 10425 10425